Terminal Aerodrome Forecast
Issued by NWS Portland, OR

Home | Current Version | Previous Version | Text Only | Print | Product List | Glossary On
Versions: 1 2 3 4 5 6 7 8 9 10 11 12 13 14 15 16 17 18 19 20 21 22 23 24 25 26 27 28 29 30 31 32 33 34 35 36 37 38 39 40 41 42 43 44
000
FTUS46 KPQR 042346
TAFAST
TAF
KAST 042346Z 0500/0524 23012G22KT P6SM -SHRA SCT009 BKN028 OVC035
     FM050200 22010KT P6SM -SHRA SCT025 BKN040
     FM051600 23006KT P6SM -SHRA FEW015 BKN030=

USA.gov is the U.S. government's official web portal to all federal, state and local government web resources and services.